Regional Weather Roundup
Issued by NWS Cleveland, OH

Home | Current Version | Previous Version | Graphics & Text | Print | Product List | Glossary On
Versions: 1 2 3 4 5 6 7 8 9 10 11 12 13 14 15 16 17 18 19 20 21 22 23 24 25 26 27 28 29 30 31 32 33 34 35 36 37 38 39 40 41 42 43 44 45 46 47 48 49 50
000
ASUS41 KCLE 041910
RWRCLE
OHIO REGIONAL WEATHER ROUNDUP
NATIONAL WEATHER SERVICE WILMINGTON, OH
300 PM EDT TUE AUG 04 2015

NOTE: "FAIR" INDICATES FEW OR NO CLOUDS BELOW 12,000 FEET WITH NO
SIGNIFICANT WEATHER AND/OR OBSTRUCTIONS TO VISIBILITY.

OHZ001>008-015>018-024>027-034-035-043-044-042000-
   NORTHWEST OHIO

CITY           SKY/WX    TMP DP  RH WIND       PRES   REMARKS
DEFIANCE       MOSUNNY   83  57  41 W8        29.95F
FINDLAY        MOSUNNY   81  56  42 W13       29.95F
TOLEDO EXPRESS PTSUNNY   79  56  45 W12       29.94F
TOLEDO EXEC    MOSUNNY   80  56  43 NW15      29.95S
LIMA           MOSUNNY   79  56  45 W9        29.98S
$$

OHZ009>014-019>023-028>033-038-089-042000-
   NORTHEAST OHIO

CITY           SKY/WX    TMP DP  RH WIND       PRES   REMARKS
CLE-HOPKINS    MOSUNNY   80  53  39 W17       29.96F
CLE-LAKEFRONT  PTSUNNY   79  55  43 W17       29.93F
CUY CO. ARPT   MOSUNNY   81  59  47 W16       29.96F
LORAIN-ELYRIA  MOSUNNY   79  56  45 W8G18     29.96F
ASHTABULA      MOSUNNY   79  51  37 W9        29.95S
AKRON-CANTON   MOSUNNY   81  52  36 W12       29.97S
WOOSTER        PTSUNNY   78  54  43 W6        29.98S
MANSFIELD      MOSUNNY   80  55  42 W13       29.98F
YOUNGSTOWN     PTSUNNY   78  51  38 W12       29.96S
$$

OHZ042-051>053-060>062-070>072-077>081-042000-
  SOUTHWEST OHIO

CITY           SKY/WX    TMP DP  RH WIND       PRES   REMARKS
CINC-COVINGTON PTSUNNY   84  59  42 W12       29.99S
CINC-LUNKEN    MOSUNNY   84  58  40 W10       29.98S
HAMILTON       MOSUNNY   83  58  42 VRB3      29.99S
DAYTON         PTSUNNY   80  57  45 W9        29.99F
WRIGHT-PAT AFB SUNNY     81  55  40 W8        29.97F
DAYTON GENERAL SUNNY     81  57  43 W9        29.98F
WILMINGTON     SUNNY     82  57  42 W10       29.98F
$$

OHZ036-037-039>041-045>050-054>059-063>069-073>076-082>088-042000-
  CENTRAL AND SOUTHEAST OHIO

CITY           SKY/WX    TMP DP  RH WIND       PRES   REMARKS
COLUMBUS       MOSUNNY   83  55  38 SW13      29.96F
OSU AIRPORT    MOSUNNY   81  57  43 SW10      29.97F
BOLTON FIELD   NOT AVBL
RICKENBACK AFB SUNNY     81  59  47 SW9       29.97S
NEWARK         MOSUNNY   83  58  42 SW8       29.97F
MARION         SUNNY     81  54  39 W9        29.98S
LANCASTER      SUNNY     82  60  47 W8        29.98F
ZANESVILLE     MOSUNNY   83  55  38 SW7       29.97F
NEW PHILLY     MOSUNNY   81  57  43 W6        29.98S
$$



USA.gov is the U.S. government's official web portal to all federal, state and local government web resources and services.